PPU43A EPKK-EPKK

Flight info

Callsign PPU43A
Flight time 0h 37m
Altitude 5000
Route KAK
Aircraft B350/L-BDFGHIJ1RSWY/S

Departure

Time 2026-05-06 18:41
Airport Kraków John Paul II International Airport (EPKK)

Arrival

Time 2026-05-06 19:18
Airport Kraków John Paul II International Airport (EPKK)
Time Latitude Longitude Altitude Speed Heading
2026-05-06 18:18 50.07603 19.80228 786 ft 0 kts 347°
2026-05-06 18:37 50.07649 19.80243 786 ft 9 kts 81°
2026-05-06 18:37 50.07677 19.80383 786 ft 15 kts 37°
2026-05-06 18:38 50.07766 19.80363 786 ft 19 kts 348°
2026-05-06 18:38 50.07853 19.80333 786 ft 0 kts 346°
2026-05-06 18:40 50.08011 19.80167 785 ft 34 kts 256°
2026-05-06 18:40 50.07966 19.79860 784 ft 0 kts 257°
2026-05-06 18:40 50.07966 19.79856 784 ft 0 kts 257°
2026-05-06 18:40 50.07956 19.79787 785 ft 41 kts 259°
2026-05-06 18:41 50.07818 19.78843 805 ft 130 kts 258°
2026-05-06 18:41 50.07552 19.77258 1073 ft 168 kts 257°
2026-05-06 18:41 50.07259 19.75374 1423 ft 186 kts 257°
2026-05-06 18:41 50.07003 19.73410 2024 ft 184 kts 258°
2026-05-06 18:42 50.06785 19.71463 2575 ft 186 kts 258°
2026-05-06 18:42 50.06583 19.69502 3198 ft 181 kts 258°
2026-05-06 18:42 50.06406 19.67557 3742 ft 182 kts 258°
2026-05-06 18:42 50.06251 19.65605 4311 ft 181 kts 259°
2026-05-06 18:43 50.06217 19.63621 4889 ft 189 kts 279°
2026-05-06 18:43 50.07066 19.61918 5023 ft 226 kts 326°
2026-05-06 18:43 50.08708 19.61329 5011 ft 251 kts 354°
2026-05-06 18:43 50.10457 19.61257 5011 ft 257 kts 357°
2026-05-06 18:44 50.12262 19.61221 5005 ft 261 kts 357°
2026-05-06 18:44 50.14090 19.61197 5009 ft 264 kts 358°
2026-05-06 18:44 50.15931 19.61176 5013 ft 265 kts 358°
2026-05-06 18:44 50.17775 19.61152 5002 ft 265 kts 358°
2026-05-06 18:45 50.19616 19.61126 5011 ft 265 kts 358°
2026-05-06 18:45 50.21460 19.61102 5011 ft 266 kts 358°
2026-05-06 18:45 50.23313 19.61072 5008 ft 266 kts 358°
2026-05-06 18:45 50.25160 19.61039 5006 ft 265 kts 358°
2026-05-06 18:46 50.27008 19.61010 5013 ft 266 kts 358°
2026-05-06 18:46 50.28834 19.61355 5025 ft 268 kts 23°
2026-05-06 18:46 50.30190 19.63268 5029 ft 265 kts 66°
2026-05-06 18:46 50.30691 19.65997 5013 ft 261 kts 85°
2026-05-06 18:47 50.30965 19.68809 5009 ft 261 kts 87°
2026-05-06 18:47 50.31217 19.71625 5010 ft 261 kts 87°
2026-05-06 18:47 50.31455 19.74438 5006 ft 261 kts 87°
2026-05-06 18:47 50.31685 19.77255 5004 ft 261 kts 88°
2026-05-06 18:48 50.31920 19.80076 5004 ft 262 kts 88°
2026-05-06 18:48 50.32154 19.82895 5001 ft 262 kts 88°
2026-05-06 18:48 50.32383 19.85722 5002 ft 262 kts 87°
2026-05-06 18:48 50.32609 19.88556 4998 ft 263 kts 88°
2026-05-06 18:49 50.32839 19.91388 4998 ft 262 kts 88°
2026-05-06 18:49 50.33067 19.94211 4994 ft 262 kts 88°
2026-05-06 18:49 50.33294 19.96999 4998 ft 262 kts 88°
2026-05-06 18:49 50.33522 19.99827 4995 ft 262 kts 88°
2026-05-06 18:50 50.33753 20.02655 4997 ft 262 kts 88°
2026-05-06 18:50 50.33984 20.05482 4998 ft 262 kts 88°
2026-05-06 18:50 50.34210 20.08308 5002 ft 262 kts 88°
2026-05-06 18:50 50.34432 20.11133 5004 ft 261 kts 88°
2026-05-06 18:51 50.34655 20.13958 5003 ft 261 kts 88°
2026-05-06 18:51 50.34881 20.16787 5002 ft 262 kts 88°
2026-05-06 18:51 50.35101 20.19619 5000 ft 263 kts 88°
2026-05-06 18:51 50.35320 20.22457 5003 ft 262 kts 88°
2026-05-06 18:52 50.35394 20.25270 5021 ft 254 kts 108°
2026-05-06 18:52 50.34513 20.27483 5040 ft 237 kts 150°
2026-05-06 18:52 50.33043 20.28546 5018 ft 232 kts 166°
2026-05-06 18:52 50.31511 20.29345 5013 ft 233 kts 167°
2026-05-06 18:53 50.29970 20.30116 5017 ft 233 kts 167°
2026-05-06 18:53 50.28426 20.30871 5011 ft 233 kts 168°
2026-05-06 18:53 50.26880 20.31627 5015 ft 233 kts 168°
2026-05-06 18:53 50.25334 20.32382 5008 ft 233 kts 168°
2026-05-06 18:54 50.23788 20.33135 5010 ft 233 kts 168°
2026-05-06 18:54 50.22240 20.33887 5006 ft 233 kts 168°
2026-05-06 18:54 50.20686 20.34609 5001 ft 233 kts 169°
2026-05-06 18:54 50.19113 20.35021 5033 ft 226 kts 191°
2026-05-06 18:55 50.17779 20.33881 5033 ft 224 kts 226°
2026-05-06 18:55 50.16836 20.31936 5024 ft 227 kts 241°
2026-05-06 18:55 50.16348 20.29592 5015 ft 229 kts 255°
2026-05-06 18:55 50.15982 20.27179 5011 ft 228 kts 252°
2026-05-06 18:56 50.15500 20.24826 5001 ft 223 kts 249°
2026-05-06 18:56 50.15032 20.22712 5000 ft 192 kts 248°
2026-05-06 18:56 50.14605 20.20865 4995 ft 176 kts 247°
2026-05-06 18:56 50.14194 20.19074 4998 ft 175 kts 248°
2026-05-06 18:57 50.13803 20.17284 4998 ft 174 kts 248°
2026-05-06 18:57 50.13415 20.15501 4997 ft 174 kts 248°
2026-05-06 18:57 50.13030 20.13718 4820 ft 172 kts 248°
2026-05-06 18:57 50.12650 20.11965 4436 ft 169 kts 248°
2026-05-06 18:58 50.12270 20.10255 4124 ft 163 kts 248°
2026-05-06 18:58 50.11938 20.08613 3952 ft 154 kts 255°
2026-05-06 18:58 50.11722 20.06996 3954 ft 151 kts 253°
2026-05-06 18:58 50.11495 20.05364 3756 ft 157 kts 255°
2026-05-06 18:59 50.11273 20.03696 3521 ft 154 kts 255°
2026-05-06 18:59 50.11057 20.02106 3300 ft 145 kts 254°
2026-05-06 18:59 50.10853 20.00632 3191 ft 129 kts 253°
2026-05-06 18:59 50.10657 19.99302 3185 ft 132 kts 252°
2026-05-06 19:00 50.10467 19.97899 3061 ft 122 kts 255°
2026-05-06 19:00 50.10306 19.96702 2915 ft 108 kts 252°
2026-05-06 19:00 50.10143 19.95563 2766 ft 109 kts 253°
2026-05-06 19:00 50.09976 19.94375 2626 ft 115 kts 254°
2026-05-06 19:01 50.09809 19.93140 2475 ft 118 kts 255°
2026-05-06 19:01 50.09637 19.91888 2314 ft 118 kts 255°
2026-05-06 19:01 50.09464 19.90635 2153 ft 119 kts 255°
2026-05-06 19:01 50.09290 19.89373 1999 ft 120 kts 255°
2026-05-06 19:02 50.09116 19.88104 1839 ft 118 kts 256°
2026-05-06 19:02 50.08949 19.86894 1690 ft 112 kts 256°
2026-05-06 19:02 50.08787 19.85740 1542 ft 107 kts 257°
2026-05-06 19:02 50.08630 19.84619 1404 ft 106 kts 257°
2026-05-06 19:03 50.08453 19.83405 1258 ft 127 kts 258°
2026-05-06 19:03 50.08279 19.82073 1090 ft 122 kts 260°
2026-05-06 19:03 50.08119 19.80882 935 ft 105 kts 260°
2026-05-06 19:03 50.07961 19.79817 818 ft 103 kts 259°
2026-05-06 19:04 50.07821 19.78805 788 ft 84 kts 258°
2026-05-06 19:04 50.07669 19.77825 924 ft 113 kts 257°
2026-05-06 19:04 50.07460 19.76501 1280 ft 144 kts 258°
2026-05-06 19:04 50.07235 19.74776 1620 ft 173 kts 258°
2026-05-06 19:05 50.06990 19.72892 2127 ft 185 kts 258°
2026-05-06 19:05 50.06777 19.70924 2726 ft 183 kts 258°
2026-05-06 19:05 50.06593 19.68973 3314 ft 181 kts 258°
2026-05-06 19:05 50.06430 19.67024 3850 ft 184 kts 259°
2026-05-06 19:06 50.06509 19.64975 4015 ft 206 kts 289°
2026-05-06 19:06 50.07618 19.63377 4029 ft 238 kts 336°
2026-05-06 19:06 50.09313 19.63185 4016 ft 253 kts
2026-05-06 19:06 50.11082 19.63520 4005 ft 259 kts
2026-05-06 19:07 50.12847 19.64109 4019 ft 262 kts 26°
2026-05-06 19:07 50.14130 19.66043 4024 ft 259 kts 66°
2026-05-06 19:07 50.14769 19.68665 4009 ft 260 kts 76°
2026-05-06 19:07 50.15314 19.71350 4011 ft 260 kts 77°
2026-05-06 19:08 50.15846 19.74045 4005 ft 260 kts 78°
2026-05-06 19:08 50.16372 19.76743 4008 ft 260 kts 77°
2026-05-06 19:08 50.16891 19.79456 4010 ft 261 kts 78°
2026-05-06 19:08 50.17406 19.82176 4007 ft 262 kts 78°
2026-05-06 19:09 50.17918 19.84891 4009 ft 260 kts 78°
2026-05-06 19:09 50.18425 19.87605 4003 ft 261 kts 78°
2026-05-06 19:09 50.18942 19.90316 3999 ft 261 kts 78°
2026-05-06 19:09 50.19458 19.93029 3999 ft 261 kts 78°
2026-05-06 19:10 50.19972 19.95746 4000 ft 261 kts 78°
2026-05-06 19:10 50.20486 19.98464 3997 ft 262 kts 78°
2026-05-06 19:10 50.21003 20.01196 4000 ft 261 kts 78°
2026-05-06 19:10 50.21377 20.03929 4020 ft 254 kts 97°
2026-05-06 19:11 50.20748 20.06356 4031 ft 240 kts 140°
2026-05-06 19:11 50.19390 20.07772 4017 ft 234 kts 159°
2026-05-06 19:11 50.17845 20.08412 4016 ft 228 kts 180°
2026-05-06 19:11 50.16269 20.08455 4010 ft 219 kts 184°
2026-05-06 19:12 50.14874 20.08533 3988 ft 185 kts 179°
2026-05-06 19:12 50.13691 20.08679 3996 ft 157 kts 191°
2026-05-06 19:12 50.12741 20.08179 3992 ft 136 kts 211°
2026-05-06 19:12 50.12032 20.07251 3793 ft 134 kts 231°
2026-05-06 19:13 50.11575 20.05927 3598 ft 146 kts 250°
2026-05-06 19:13 50.11364 20.04342 3441 ft 147 kts 254°
2026-05-06 19:13 50.11152 20.02845 3451 ft 137 kts 253°
2026-05-06 19:13 50.10959 20.01436 3453 ft 129 kts 253°
2026-05-06 19:14 50.10759 20.00081 3362 ft 127 kts 252°
2026-05-06 19:14 50.10565 19.98765 3296 ft 125 kts 254°
2026-05-06 19:14 50.10401 19.97417 3110 ft 129 kts 254°
2026-05-06 19:14 50.10252 19.96134 2906 ft 116 kts 254°
2026-05-06 19:15 50.10074 19.94935 2705 ft 113 kts 251°
2026-05-06 19:15 50.09890 19.93770 2510 ft 113 kts 253°
2026-05-06 19:15 50.09734 19.92550 2299 ft 114 kts 255°
2026-05-06 19:15 50.09550 19.91354 2113 ft 113 kts 252°
2026-05-06 19:16 50.09374 19.90171 1914 ft 114 kts 257°
2026-05-06 19:16 50.09235 19.88956 1801 ft 115 kts 258°
2026-05-06 19:16 50.09065 19.87752 1739 ft 114 kts 256°
2026-05-06 19:16 50.08889 19.86548 1673 ft 113 kts 255°
2026-05-06 19:17 50.08734 19.85345 1583 ft 113 kts 256°
2026-05-06 19:17 50.08555 19.84134 1406 ft 116 kts 258°
2026-05-06 19:17 50.08396 19.82951 1190 ft 108 kts 256°
2026-05-06 19:17 50.08239 19.81820 1070 ft 107 kts 256°
2026-05-06 19:18 50.08080 19.80689 927 ft 108 kts 257°
2026-05-06 19:18 50.07930 19.79591 790 ft 97 kts 257°
2026-05-06 19:18 50.07824 19.78842 788 ft 25 kts 257°
2026-05-06 19:18 50.07811 19.78750 787 ft 18 kts 258°
2026-05-06 19:19 50.07761 19.78382 787 ft 44 kts 258°
2026-05-06 19:19 50.07648 19.78109 785 ft 24 kts 179°
2026-05-06 19:19 50.07621 19.78108 785 ft 0 kts 181°
2026-05-06 19:20 50.07620 19.78108 785 ft 2 kts 181°
2026-05-06 19:20 50.07510 19.78103 785 ft 19 kts 180°
2026-05-06 19:20 50.07479 19.78187 785 ft 18 kts 79°
2026-05-06 19:21 50.07520 19.78485 786 ft 27 kts 77°
2026-05-06 19:21 50.07551 19.78725 786 ft 9 kts 79°
2026-05-06 19:21 50.07563 19.78812 786 ft 16 kts 75°
2026-05-06 19:21 50.07603 19.79081 786 ft 17 kts 77°
2026-05-06 19:22 50.07600 19.79151 786 ft 7 kts 160°
2026-05-06 19:22 50.07538 19.79163 786 ft 5 kts 178°
2026-05-06 19:22 50.07445 19.79170 786 ft 13 kts 168°